Location: Ostrava
(49.8330°N, 18.2830°E)
Time: 11:23:44
(UTC+02:00)

Iridium 39 - Visible Passes

Search period start: 23 September 2017 00:00
Search period end: 03 October 2017 00:00
Orbit: 725 x 751 km, 86.4° (Epoch: 22 September)

Date Brightness Start Highest point End Pass type
(mag) Time Alt. Az. Time Alt. Az. Time Alt. Az.
23 Sep 8.5 00:27:23 16° NNW 00:27:23 16° NNW 00:28:32 10° NNW visible
23 Sep 8.5 22:02:43 10° NE 22:02:43 10° NE 22:02:46 10° NNE visible
23 Sep 8.4 23:42:21 18° N 23:42:21 18° N 23:43:42 10° N visible
24 Sep 8.3 22:57:19 17° NNE 22:57:19 17° NNE 22:58:28 10° N visible
25 Sep 8.7 00:36:57 13° NNW 00:36:57 13° NNW 00:37:37 10° NNW visible
25 Sep 8.4 22:12:16 13° NNE 22:12:16 13° NNE 22:12:49 10° NNE visible
25 Sep 8.5 23:51:55 17° NNW 23:51:55 17° NNW 23:53:05 10° N visible
26 Sep 8.3 23:06:52 17° N 23:06:52 17° N 23:08:03 10° N visible
27 Sep 8.3 22:21:49 14° NNE 22:21:49 14° NNE 22:22:38 10° NNE visible
28 Sep 8.7 00:01:27 14° NNW 00:01:27 14° NNW 00:02:20 10° NNW visible
28 Sep 8.5 23:16:23 17° N 23:16:23 17° N 23:17:31 10° N visible
29 Sep 8.3 22:31:20 16° NNE 22:31:20 16° NNE 22:32:19 10° N visible
30 Sep 8.9 00:10:58 12° NNW 00:10:58 12° NNW 00:11:23 10° NNW visible
30 Sep 8.4 21:46:17 12° NNE 21:46:17 12° NNE 21:46:40 10° NNE visible
30 Sep 8.6 23:25:55 15° NNW 23:25:55 15° NNW 23:26:53 10° N visible
01 Oct 8.4 22:40:50 16° N 22:40:50 16° N 22:41:52 10° N visible
02 Oct 8.3 21:55:46 14° NNE 21:55:46 14° NNE 21:56:28 10° NNE visible
02 Oct 8.8 23:35:25 13° NNW 23:35:25 13° NNW 23:36:07 10° NNW visible
